| time (UTC) | temp F | wind direction | speed knots | gust knots | rain 1hr in | rain 24hr in | rain mn in | humidity % | barometer mb |
| 20260505192658 | 80 | 142 | 0.9 | 1.7 | 0.00 | 0.00 | 0.00 | 93 | 1012.0 |
| 20260505192157 | 80 | 121 | 2.6 | 2.6 | 0.00 | 0.00 | 0.00 | 93 | 1012.0 |
| 20260505191657 | 80 | 139 | 1.7 | 1.7 | 0.00 | 0.00 | 0.00 | 93 | 1012.0 |
| 20260505191158 | 80 | 121 | 2.6 | 2.6 | 0.00 | 0.00 | 0.00 | 92 | 1012.0 |
| 20260505190659 | 80 | 133 | 2.6 | 2.6 | 0.00 | 0.00 | 0.00 | 92 | 1012.0 |
| 20260505190157 | 80 | 141 | 1.7 | 1.7 | 0.00 | 0.00 | 0.00 | 92 | 1012.0 |
| 20260505185658 | 80 | 100 | 1.7 | 2.6 | 0.00 | 0.00 | 0.00 | 92 | 1012.0 |
| 20260505185157 | 81 | 114 | 1.7 | 1.7 | 0.00 | 0.00 | 0.00 | 91 | 1012.0 |
| 20260505184657 | 81 | 125 | 2.6 | 2.6 | 0.00 | 0.00 | 0.00 | 91 | 1012.0 |
| 20260505184157 | 81 | 101 | 1.7 | 2.6 | 0.00 | 0.00 | 0.00 | 91 | 1012.0 |
| 20260505183658 | 81 | 117 | 1.7 | 1.7 | 0.00 | 0.00 | 0.00 | 91 | 1012.0 |
| 20260505183157 | 81 | 118 | 2.6 | 2.6 | 0.00 | 0.00 | 0.00 | 90 | 1012.0 |
| 20260505182659 | 81 | 141 | 0.0 | 0.0 | 0.00 | 0.00 | 0.00 | 91 | 1012.0 |
| 20260505182158 | 82 | 164 | 0.9 | 1.7 | 0.00 | 0.00 | 0.00 | 90 | 1012.0 |
| 20260505181659 | 82 | 163 | 0.0 | 0.0 | 0.00 | 0.00 | 0.00 | 90 | 1012.0 |
| 20260505181157 | 82 | 178 | 0.9 | 0.9 | 0.00 | 0.00 | 0.00 | 90 | 1012.0 |
| 20260505180657 | 82 | 198 | 1.7 | 1.7 | 0.00 | 0.00 | 0.00 | 90 | 1012.0 |
| 20260505180158 | 82 | 137 | 0.9 | 0.9 | 0.00 | 0.00 | 0.00 | 90 | 1012.0 |
| 20260505175657 | 82 | 144 | 0.9 | 1.7 | 0.00 | 0.00 | 0.00 | 90 | 1012.0 |
| 20260505175158 | 83 | 131 | 1.7 | 1.7 | 0.00 | 0.00 | 0.00 | 89 | 1012.0 |
| 20260505174657 | 84 | 94 | 1.7 | 1.7 | 0.00 | 0.00 | 0.00 | 86 | 1012.0 |
| 20260505174158 | 84 | 188 | 1.7 | 1.7 | 0.00 | 0.00 | 0.00 | 87 | 1012.0 |
| 20260505173658 | 84 | 169 | 0.0 | 0.0 | 0.00 | 0.00 | 0.00 | 87 | 1012.0 |
| 20260505173157 | 84 | 183 | 0.9 | 0.9 | 0.00 | 0.00 | 0.00 | 87 | 1012.0 |
| 20260505172658 | 84 | 188 | 1.7 | 1.7 | 0.00 | 0.00 | 0.00 | 87 | 1012.0 |
| 20260505172157 | 84 | 170 | 0.0 | 0.0 | 0.00 | 0.00 | 0.00 | 86 | 1012.0 |
| 20260505171658 | 84 | 177 | 0.9 | 1.7 | 0.00 | 0.00 | 0.00 | 87 | 1012.0 |
| 20260505171159 | 84 | 190 | 0.9 | 0.9 | 0.00 | 0.00 | 0.00 | 87 | 1012.0 |
| 20260505170657 | 84 | 177 | 0.9 | 0.9 | 0.00 | 0.00 | 0.00 | 87 | 1012.0 |
| 20260505170158 | 83 | 181 | 0.9 | 0.9 | 0.00 | 0.00 | 0.00 | 87 | 1012.0 |
| 20260505165658 | 83 | 187 | 0.0 | 0.9 | 0.00 | 0.00 | 0.00 | 88 | 1012.0 |
| 20260505165158 | 83 | 164 | 0.0 | 0.0 | 0.00 | 0.00 | 0.00 | 88 | 1012.0 |
| 20260505164659 | 83 | 173 | 0.0 | 0.9 | 0.00 | 0.00 | 0.00 | 88 | 1012.0 |
| 20260505164157 | 84 | 176 | 0.0 | 0.9 | 0.00 | 0.00 | 0.00 | 87 | 1012.0 |
| 20260505163657 | 84 | 214 | 2.6 | 2.6 | 0.00 | 0.00 | 0.00 | 87 | 1012.0 |
| 20260505163158 | 84 | 203 | 0.0 | 0.0 | 0.00 | 0.00 | 0.00 | 87 | 1012.0 |
| 20260505162658 | 84 | 185 | 0.0 | 0.9 | 0.00 | 0.00 | 0.00 | 87 | 1012.0 |
| 20260505162158 | 84 | 186 | 1.7 | 1.7 | 0.00 | 0.00 | 0.00 | 87 | 1012.0 |
| 20260505161657 | 84 | 215 | 1.7 | 1.7 | 0.00 | 0.00 | 0.00 | 87 | 1012.0 |
| 20260505161157 | 84 | 247 | 3.5 | 4.3 | 0.00 | 0.00 | 0.00 | 87 | 1012.0 |
| 20260505160658 | 84 | 242 | 2.6 | 2.6 | 0.00 | 0.00 | 0.00 | 87 | 1012.0 |
| 20260505160159 | 84 | 225 | 2.6 | 2.6 | 0.00 | 0.00 | 0.00 | 87 | 1013.0 |
| 20260505153158 | 84 | 222 | 1.7 | 1.7 | 0.00 | 0.00 | 0.00 | 87 | 1013.0 |
| 20260505152657 | 84 | 203 | 0.0 | 0.0 | 0.00 | 0.00 | 0.00 | 87 | 1013.0 |
| 20260505152157 | 84 | 171 | 0.0 | 0.0 | 0.00 | 0.00 | 0.00 | 86 | 1013.0 |
| 20260505151658 | 84 | 168 | 0.9 | 1.7 | 0.00 | 0.00 | 0.00 | 86 | 1013.0 |
| 20260505151201 | 84 | 180 | 0.0 | 0.0 | 0.00 | 0.00 | 0.00 | 86 | 1013.0 |
| 20260505150657 | 84 | 171 | 0.0 | 0.0 | 0.00 | 0.00 | 0.00 | 86 | 1013.0 |
| 20260505150158 | 84 | 179 | 0.0 | 0.0 | 0.00 | 0.00 | 0.00 | 86 | 1012.0 |
| 20260505140159 | 85 | 239 | 2.6 | 2.6 | 0.00 | 0.00 | 0.00 | 84 | 1013.0 |
| 20260505130157 | 85 | 296 | 3.5 | 4.3 | 0.00 | 0.00 | 0.00 | 83 | 1012.0 |
| 20260505124657 | 85 | 171 | 0.9 | 1.7 | 0.00 | 0.00 | 0.00 | 82 | 1012.0 |
| 20260505124200 | 85 | 178 | 0.9 | 1.7 | 0.00 | 0.00 | 0.00 | 82 | 1012.0 |
| 20260505123657 | 85 | 277 | 2.6 | 4.3 | 0.00 | 0.00 | 0.00 | 81 | 1012.0 |
| 20260505123157 | 85 | 232 | 1.7 | 1.7 | 0.00 | 0.00 | 0.00 | 81 | 1012.0 |
| 20260505122657 | 85 | 229 | 2.6 | 4.3 | 0.00 | 0.00 | 0.00 | 81 | 1012.0 |
| 20260505122157 | 85 | 225 | 1.7 | 2.6 | 0.00 | 0.00 | 0.00 | 81 | 1012.0 |
| 20260505121658 | 85 | 285 | 3.5 | 4.3 | 0.00 | 0.00 | 0.00 | 81 | 1012.0 |
| 20260505121157 | 85 | 204 | 2.6 | 2.6 | 0.00 | 0.00 | 0.00 | 81 | 1012.0 |
| 20260505120657 | 85 | 280 | 4.3 | 6.1 | 0.00 | 0.00 | 0.00 | 81 | 1012.0 |
| 20260505120157 | 85 | 325 | 3.5 | 4.3 | 0.00 | 0.00 | 0.00 | 80 | 1012.0 |
| 20260505115658 | 85 | 287 | 2.6 | 2.6 | 0.00 | 0.00 | 0.00 | 80 | 1012.0 |
| 20260505115157 | 85 | 197 | 1.7 | 1.7 | 0.00 | 0.00 | 0.00 | 80 | 1012.0 |
| 20260505114657 | 85 | 225 | 3.5 | 4.3 | 0.00 | 0.00 | 0.00 | 80 | 1012.0 |
| 20260505114157 | 85 | 285 | 2.6 | 2.6 | 0.00 | 0.00 | 0.00 | 80 | 1012.0 |
| 20260505113657 | 86 | 280 | 4.3 | 5.2 | 0.00 | 0.00 | 0.00 | 79 | 1012.0 |
| 20260505113157 | 86 | 298 | 2.6 | 4.3 | 0.00 | 0.00 | 0.00 | 79 | 1012.0 |
| 20260505112657 | 86 | 204 | 1.7 | 1.7 | 0.00 | 0.00 | 0.00 | 78 | 1011.0 |
| 20260505112157 | 86 | 230 | 0.9 | 0.9 | 0.00 | 0.00 | 0.00 | 78 | 1011.0 |
| 20260505111657 | 86 | 147 | 0.9 | 1.7 | 0.00 | 0.00 | 0.00 | 78 | 1011.0 |
| 20260505111157 | 86 | 156 | 1.7 | 1.7 | 0.00 | 0.00 | 0.00 | 78 | 1011.0 |
| 20260505110657 | 86 | 216 | 2.6 | 4.3 | 0.00 | 0.00 | 0.00 | 77 | 1011.0 |
| 20260505110159 | 86 | 165 | 1.7 | 1.7 | 0.00 | 0.00 | 0.00 | 77 | 1011.0 |
| 20260505102157 | 87 | 275 | 3.5 | 5.2 | 0.00 | 0.00 | 0.00 | 72 | 1010.0 |
| 20260505101658 | 87 | 295 | 2.6 | 2.6 | 0.00 | 0.00 | 0.00 | 72 | 1010.0 |
| 20260505101157 | 87 | 260 | 2.6 | 2.6 | 0.00 | 0.00 | 0.00 | 71 | 1010.0 |
| 20260505100658 | 88 | 305 | 5.2 | 6.1 | 0.00 | 0.00 | 0.00 | 71 | 1010.0 |
| 20260505100157 | 88 | 263 | 2.6 | 2.6 | 0.00 | 0.00 | 0.00 | 69 | 1010.0 |
| 20260505095657 | 88 | 182 | 1.7 | 1.7 | 0.00 | 0.00 | 0.00 | 69 | 1010.0 |
| 20260505095157 | 88 | 280 | 4.3 | 6.1 | 0.00 | 0.00 | 0.00 | 68 | 1010.0 |
| 20260505094657 | 89 | 245 | 3.5 | 4.3 | 0.00 | 0.00 | 0.00 | 69 | 1010.0 |
| 20260505094157 | 89 | 322 | 5.2 | 5.2 | 0.00 | 0.00 | 0.00 | 68 | 1010.0 |
| 20260505093657 | 89 | 286 | 7.0 | 7.8 | 0.00 | 0.00 | 0.00 | 67 | 1010.0 |
| 20260505093159 | 89 | 187 | 2.6 | 2.6 | 0.00 | 0.00 | 0.00 | 66 | 1010.0 |
| 20260505092659 | 89 | 262 | 5.2 | 7.8 | 0.00 | 0.00 | 0.00 | 66 | 1010.0 |
| 20260505092158 | 90 | 325 | 7.0 | 7.8 | 0.00 | 0.00 | 0.00 | 66 | 1010.0 |
| 20260505091658 | 90 | 315 | 5.2 | 6.1 | 0.00 | 0.00 | 0.00 | 64 | 1010.0 |
| 20260505091157 | 90 | 219 | 3.5 | 4.3 | 0.00 | 0.00 | 0.00 | 64 | 1009.0 |
| 20260505090658 | 90 | 319 | 5.2 | 6.1 | 0.00 | 0.00 | 0.00 | 64 | 1010.0 |
| 20260505090157 | 90 | 173 | 4.3 | 5.2 | 0.00 | 0.00 | 0.00 | 63 | 1010.0 |
| 20260505085657 | 90 | 300 | 6.1 | 7.8 | 0.00 | 0.00 | 0.00 | 63 | 1010.0 |
| 20260505085158 | 90 | 271 | 6.1 | 7.0 | 0.00 | 0.00 | 0.00 | 63 | 1009.0 |
| 20260505084658 | 91 | 324 | 7.0 | 7.8 | 0.00 | 0.00 | 0.00 | 62 | 1009.0 |
| 20260505084157 | 90 | 269 | 4.3 | 6.1 | 0.00 | 0.00 | 0.00 | 63 | 1009.0 |
| 20260505083657 | 91 | 278 | 7.8 | 9.6 | 0.00 | 0.00 | 0.00 | 62 | 1009.0 |
| 20260505083158 | 91 | 265 | 4.3 | 5.2 | 0.00 | 0.00 | 0.00 | 62 | 1009.0 |
| 20260505082657 | 91 | 312 | 4.3 | 6.1 | 0.00 | 0.00 | 0.00 | 61 | 1009.0 |
| 20260505082157 | 91 | 279 | 3.5 | 5.2 | 0.00 | 0.00 | 0.00 | 62 | 1009.0 |
| 20260505081659 | 91 | 271 | 7.8 | 8.7 | 0.00 | 0.00 | 0.00 | 61 | 1009.0 |
| 20260505081200 | 91 | 212 | 4.3 | 6.1 | 0.00 | 0.00 | 0.00 | 61 | 1009.0 |
| 20260505080657 | 92 | 246 | 4.3 | 5.2 | 0.00 | 0.00 | 0.00 | 63 | 1009.0 |
| 20260505080158 | 92 | 336 | 4.3 | 6.1 | 0.00 | 0.00 | 0.00 | 62 | 1009.0 |
| 20260505075659 | 92 | 274 | 3.5 | 5.2 | 0.00 | 0.00 | 0.00 | 61 | 1009.0 |
| 20260505075158 | 91 | 9 | 4.3 | 6.1 | 0.00 | 0.00 | 0.00 | 61 | 1009.0 |
| 20260505074658 | 92 | 172 | 3.5 | 5.2 | 0.00 | 0.00 | 0.00 | 61 | 1009.0 |
| 20260505074157 | 92 | 13 | 5.2 | 6.1 | 0.00 | 0.00 | 0.00 | 62 | 1009.0 |
| 20260505073657 | 91 | 301 | 3.5 | 4.3 | 0.00 | 0.00 | 0.00 | 62 | 1009.0 |
| 20260505073158 | 92 | 320 | 4.3 | 5.2 | 0.00 | 0.00 | 0.00 | 62 | 1009.0 |
| 20260505072658 | 92 | 198 | 1.7 | 1.7 | 0.00 | 0.00 | 0.00 | 62 | 1009.0 |
| 20260505072158 | 93 | 135 | 3.5 | 4.3 | 0.00 | 0.00 | 0.00 | 62 | 1009.0 |
| 20260505071658 | 93 | 291 | 5.2 | 6.1 | 0.00 | 0.00 | 0.00 | 61 | 1009.0 |
| 20260505071158 | 93 | 291 | 4.3 | 5.2 | 0.00 | 0.00 | 0.00 | 61 | 1010.0 |
| 20260505070658 | 92 | 342 | 4.3 | 5.2 | 0.00 | 0.00 | 0.00 | 62 | 1009.0 |
| 20260505070158 | 92 | 297 | 2.6 | 4.3 | 0.00 | 0.00 | 0.00 | 63 | 1009.0 |
| 20260505065657 | 92 | 280 | 7.0 | 7.8 | 0.00 | 0.00 | 0.00 | 62 | 1010.0 |
| 20260505065157 | 92 | 307 | 3.5 | 4.3 | 0.00 | 0.00 | 0.00 | 63 | 1009.0 |
| 20260505064657 | 92 | 300 | 5.2 | 6.1 | 0.00 | 0.00 | 0.00 | 62 | 1010.0 |
| 20260505064157 | 92 | 297 | 4.3 | 5.2 | 0.00 | 0.00 | 0.00 | 62 | 1010.0 |
| 20260505063657 | 91 | 339 | 5.2 | 7.0 | 0.00 | 0.00 | 0.00 | 63 | 1010.0 |
| 20260505063158 | 92 | 291 | 6.1 | 7.0 | 0.00 | 0.00 | 0.00 | 63 | 1010.0 |
| 20260505062658 | 92 | 327 | 6.1 | 7.0 | 0.00 | 0.00 | 0.00 | 63 | 1010.0 |
| 20260505062158 | 92 | 248 | 4.3 | 5.2 | 0.00 | 0.00 | 0.00 | 62 | 1010.0 |
| 20260505061657 | 92 | 275 | 1.7 | 2.6 | 0.00 | 0.00 | 0.00 | 63 | 1010.0 |
| 20260505061157 | 91 | 215 | 3.5 | 5.2 | 0.00 | 0.00 | 0.00 | 63 | 1010.0 |
| 20260505060658 | 92 | 295 | 3.5 | 4.3 | 0.00 | 0.00 | 0.00 | 63 | 1010.0 |
| 20260505060157 | 91 | 296 | 2.6 | 4.3 | 0.00 | 0.00 | 0.00 | 63 | 1010.0 |
| 20260505055657 | 91 | 239 | 4.3 | 4.3 | 0.00 | 0.00 | 0.00 | 63 | 1010.0 |
| 20260505055157 | 92 | 290 | 4.3 | 5.2 | 0.00 | 0.00 | 0.00 | 61 | 1010.0 |
| 20260505054657 | 92 | 325 | 6.1 | 7.0 | 0.00 | 0.00 | 0.00 | 64 | 1010.0 |
| 20260505054157 | 92 | 310 | 3.5 | 4.3 | 0.00 | 0.00 | 0.00 | 65 | 1010.0 |
| 20260505053657 | 92 | 322 | 3.5 | 4.3 | 0.00 | 0.00 | 0.00 | 65 | 1010.0 |
| 20260505053156 | 92 | 345 | 4.3 | 5.2 | 0.00 | 0.00 | 0.00 | 63 | 1010.0 |
| 20260505052657 | 91 | 286 | 4.3 | 5.2 | 0.00 | 0.00 | 0.00 | 64 | 1011.0 |
| 20260505052157 | 91 | 173 | 2.6 | 2.6 | 0.00 | 0.00 | 0.00 | 65 | 1011.0 |
| 20260505051657 | 91 | 297 | 5.2 | 6.1 | 0.00 | 0.00 | 0.00 | 63 | 1011.0 |
| 20260505051158 | 92 | 311 | 3.5 | 4.3 | 0.00 | 0.00 | 0.00 | 65 | 1011.0 |
| 20260505050657 | 91 | 315 | 4.3 | 7.0 | 0.00 | 0.00 | 0.00 | 64 | 1011.0 |
| 20260505050157 | 91 | 319 | 4.3 | 5.2 | 0.00 | 0.00 | 0.00 | 64 | 1011.0 |
| 20260505041657 | 91 | 198 | 4.3 | 5.2 | 0.00 | 0.00 | 0.00 | 66 | 1012.0 |
| 20260505041157 | 90 | 281 | 5.2 | 6.1 | 0.00 | 0.00 | 0.00 | 67 | 1012.0 |
| 20260505040658 | 90 | 302 | 4.3 | 5.2 | 0.00 | 0.00 | 0.00 | 68 | 1012.0 |
| 20260505040157 | 90 | 245 | 2.6 | 4.3 | 0.00 | 0.00 | 0.00 | 69 | 1012.0 |
| 20260505035658 | 90 | 245 | 2.6 | 4.3 | 0.00 | 0.00 | 0.00 | 68 | 1012.0 |
| 20260505035158 | 90 | 263 | 5.2 | 6.1 | 0.00 | 0.00 | 0.00 | 68 | 1012.0 |
| 20260505034657 | 89 | 270 | 2.6 | 4.3 | 0.00 | 0.00 | 0.00 | 69 | 1012.0 |
| 20260505034158 | 90 | 201 | 6.1 | 7.0 | 0.00 | 0.00 | 0.00 | 68 | 1012.0 |
| 20260505033658 | 89 | 165 | 0.9 | 0.9 | 0.00 | 0.00 | 0.00 | 69 | 1012.0 |
| 20260505033157 | 90 | 227 | 3.5 | 5.2 | 0.00 | 0.00 | 0.00 | 69 | 1012.0 |
| 20260505032657 | 90 | 353 | 4.3 | 5.2 | 0.00 | 0.00 | 0.00 | 69 | 1012.0 |
| 20260505032158 | 89 | 175 | 2.6 | 2.6 | 0.00 | 0.00 | 0.00 | 70 | 1013.0 |
| 20260505031657 | 90 | 287 | 6.1 | 7.0 | 0.00 | 0.00 | 0.00 | 69 | 1013.0 |
| 20260505031157 | 90 | 251 | 3.5 | 5.2 | 0.00 | 0.00 | 0.00 | 68 | 1013.0 |
| 20260505030657 | 89 | 211 | 2.6 | 2.6 | 0.00 | 0.00 | 0.00 | 71 | 1013.0 |
| 20260505030159 | 88 | 241 | 2.6 | 2.6 | 0.00 | 0.00 | 0.00 | 71 | 1013.0 |
| 20260505025659 | 88 | 291 | 3.5 | 4.3 | 0.00 | 0.00 | 0.00 | 71 | 1013.0 |
| 20260505025159 | 89 | 315 | 4.3 | 5.2 | 0.00 | 0.00 | 0.00 | 72 | 1013.0 |
| 20260505024658 | 89 | 208 | 2.6 | 2.6 | 0.00 | 0.00 | 0.00 | 72 | 1013.0 |
| 20260505024200 | 89 | 213 | 2.6 | 2.6 | 0.00 | 0.00 | 0.00 | 72 | 1013.0 |
| 20260505023208 | 88 | 262 | 7.0 | 8.7 | 0.00 | 0.00 | 0.00 | 72 | 1013.0 |
| 20260505022657 | 87 | 262 | 5.2 | 6.1 | 0.00 | 0.00 | 0.00 | 74 | 1013.0 |
| 20260505022159 | 88 | 301 | 4.3 | 5.2 | 0.00 | 0.00 | 0.00 | 74 | 1013.0 |
| 20260505021659 | 88 | 251 | 3.5 | 4.3 | 0.00 | 0.00 | 0.00 | 74 | 1013.0 |
| 20260505021158 | 87 | 277 | 6.1 | 6.1 | 0.00 | 0.00 | 0.00 | 74 | 1013.0 |
| 20260505020659 | 87 | 171 | 1.7 | 1.7 | 0.00 | 0.00 | 0.00 | 76 | 1013.0 |
| 20260505020157 | 87 | 282 | 2.6 | 4.3 | 0.00 | 0.00 | 0.00 | 76 | 1013.0 |
| 20260505015658 | 87 | 191 | 2.6 | 2.6 | 0.00 | 0.00 | 0.00 | 77 | 1013.0 |
| 20260505015157 | 86 | 320 | 3.5 | 5.2 | 0.00 | 0.00 | 0.00 | 78 | 1013.0 |
| 20260505014657 | 86 | 148 | 2.6 | 2.6 | 0.00 | 0.00 | 0.00 | 79 | 1013.0 |
| 20260505014157 | 86 | 283 | 4.3 | 5.2 | 0.00 | 0.00 | 0.00 | 80 | 1013.0 |
| 20260505013657 | 86 | 171 | 1.7 | 1.7 | 0.00 | 0.00 | 0.00 | 82 | 1013.0 |
| 20260505013157 | 86 | 180 | 0.0 | 0.9 | 0.00 | 0.00 | 0.00 | 83 | 1013.0 |
| 20260505012657 | 85 | 167 | 0.9 | 0.9 | 0.00 | 0.00 | 0.00 | 85 | 1013.0 |
| 20260505012157 | 84 | 129 | 0.9 | 1.7 | 0.00 | 0.00 | 0.00 | 86 | 1013.0 |
| 20260505011657 | 85 | 61 | 2.6 | 4.3 | 0.00 | 0.00 | 0.00 | 85 | 1013.0 |
| 20260505011157 | 85 | 164 | 0.9 | 0.9 | 0.00 | 0.00 | 0.00 | 85 | 1013.0 |
| 20260505010657 | 84 | 150 | 0.9 | 0.9 | 0.00 | 0.00 | 0.00 | 86 | 1013.0 |
| 20260505010159 | 84 | 104 | 1.7 | 1.7 | 0.00 | 0.00 | 0.00 | 87 | 1013.0 |
| 20260505005700 | 84 | 76 | 0.9 | 1.7 | 0.00 | 0.00 | 0.00 | 86 | 1013.0 |
| 20260505005159 | 83 | 144 | 1.7 | 2.6 | 0.00 | 0.00 | 0.00 | 88 | 1013.0 |
| 20260505004657 | 83 | 144 | 2.6 | 2.6 | 0.00 | 0.00 | 0.00 | 89 | 1013.0 |
| 20260505004157 | 82 | 154 | 0.9 | 0.9 | 0.00 | 0.00 | 0.00 | 89 | 1013.0 |
| 20260505003657 | 82 | 130 | 0.9 | 1.7 | 0.00 | 0.00 | 0.00 | 90 | 1013.0 |
| 20260505003158 | 82 | 143 | 1.7 | 1.7 | 0.00 | 0.00 | 0.00 | 90 | 1013.0 |
| 20260505002657 | 82 | 152 | 0.9 | 1.7 | 0.00 | 0.00 | 0.00 | 90 | 1013.0 |
| 20260505002157 | 81 | 42 | 2.6 | 2.6 | 0.00 | 0.00 | 0.00 | 91 | 1013.0 |
| 20260505001657 | 81 | 137 | 0.9 | 1.7 | 0.00 | 0.00 | 0.00 | 91 | 1013.0 |
| 20260505001157 | 82 | 106 | 2.6 | 2.6 | 0.00 | 0.00 | 0.00 | 90 | 1013.0 |
| 20260505000657 | 81 | 164 | 0.0 | 0.0 | 0.00 | 0.00 | 0.00 | 91 | 1012.0 |
| 20260505000157 | 81 | 152 | 0.0 | 0.9 | 0.00 | 0.00 | 0.00 | 92 | 1012.0 |
| 20260504235657 | 81 | 143 | 0.9 | 0.9 | 0.00 | 0.00 | 0.00 | 91 | 1012.0 |
| 20260504235157 | 81 | 106 | 2.6 | 2.6 | 0.00 | 0.00 | 0.00 | 91 | 1013.0 |
| 20260504234657 | 81 | 163 | 0.9 | 1.7 | 0.00 | 0.00 | 0.00 | 92 | 1012.0 |
| 20260504234157 | 81 | 127 | 0.9 | 0.9 | 0.00 | 0.00 | 0.00 | 93 | 1012.0 |
| 20260504233657 | 80 | 152 | 0.0 | 0.0 | 0.00 | 0.00 | 0.00 | 95 | 1012.0 |
| 20260504233157 | 80 | 157 | 0.9 | 0.9 | 0.00 | 0.00 | 0.00 | 95 | 1013.0 |
| 20260504232657 | 80 | 141 | 0.9 | 0.9 | 0.00 | 0.00 | 0.00 | 95 | 1012.0 |
| 20260504232157 | 80 | 162 | 0.9 | 0.9 | 0.00 | 0.00 | 0.00 | 95 | 1012.0 |
| 20260504231657 | 80 | 148 | 0.9 | 0.9 | 0.00 | 0.00 | 0.00 | 96 | 1012.0 |
| 20260504231157 | 79 | 155 | 0.9 | 0.9 | 0.00 | 0.00 | 0.00 | 96 | 1012.0 |
| 20260504230658 | 79 | 118 | 0.0 | 0.9 | 0.00 | 0.00 | 0.00 | 95 | 1012.0 |
| 20260504230158 | 80 | 110 | 1.7 | 2.6 | 0.00 | 0.00 | 0.00 | 95 | 1012.0 |
| 20260504225657 | 80 | 161 | 0.0 | 0.9 | 0.00 | 0.00 | 0.00 | 95 | 1012.0 |
| 20260504225158 | 80 | 163 | 0.0 | 0.0 | 0.00 | 0.00 | 0.00 | 95 | 1012.0 |
| 20260504224657 | 80 | 141 | 0.9 | 1.7 | 0.00 | 0.00 | 0.00 | 95 | 1012.0 |
| 20260504224157 | 79 | 156 | 0.0 | 0.0 | 0.00 | 0.00 | 0.00 | 95 | 1012.0 |
| 20260504223657 | 79 | 160 | 0.0 | 0.0 | 0.00 | 0.00 | 0.00 | 95 | 1012.0 |
| 20260504223157 | 79 | 157 | 0.0 | 0.9 | 0.00 | 0.00 | 0.00 | 95 | 1012.0 |
| 20260504222657 | 79 | 148 | 0.9 | 0.9 | 0.00 | 0.00 | 0.00 | 95 | 1012.0 |
| 20260504222201 | 80 | 154 | 0.0 | 0.0 | 0.00 | 0.00 | 0.00 | 95 | 1012.0 |
| 20260504221656 | 80 | 150 | 0.9 | 1.7 | 0.00 | 0.00 | 0.00 | 95 | 1012.0 |
| 20260504221157 | 80 | 147 | 0.9 | 1.7 | 0.00 | 0.00 | 0.00 | 95 | 1012.0 |
| 20260504220657 | 80 | 139 | 0.9 | 0.9 | 0.00 | 0.00 | 0.00 | 94 | 1012.0 |
| 20260504220157 | 80 | 150 | 0.9 | 0.9 | 0.00 | 0.00 | 0.00 | 94 | 1012.0 |
| 20260504215657 | 80 | 155 | 0.0 | 0.9 | 0.00 | 0.00 | 0.00 | 94 | 1011.0 |
| 20260504215157 | 80 | 157 | 0.9 | 0.9 | 0.00 | 0.00 | 0.00 | 94 | 1012.0 |
| 20260504214658 | 80 | 156 | 0.9 | 0.9 | 0.00 | 0.00 | 0.00 | 94 | 1011.0 |
| 20260504214157 | 80 | 140 | 0.0 | 0.0 | 0.00 | 0.00 | 0.00 | 94 | 1011.0 |
| 20260504213657 | 80 | 159 | 0.0 | 0.0 | 0.00 | 0.00 | 0.00 | 94 | 1011.0 |
| 20260504213157 | 80 | 160 | 0.0 | 0.0 | 0.00 | 0.00 | 0.00 | 94 | 1011.0 |
| 20260504212657 | 80 | 144 | 0.9 | 0.9 | 0.00 | 0.00 | 0.00 | 94 | 1011.0 |
| 20260504212157 | 80 | 135 | 1.7 | 1.7 | 0.00 | 0.00 | 0.00 | 94 | 1011.0 |
| 20260504211657 | 80 | 113 | 0.9 | 0.9 | 0.00 | 0.00 | 0.00 | 94 | 1011.0 |
| 20260504211157 | 80 | 151 | 1.7 | 1.7 | 0.00 | 0.00 | 0.00 | 94 | 1011.0 |
| 20260504210657 | 80 | 69 | 1.7 | 1.7 | 0.00 | 0.00 | 0.00 | 94 | 1011.0 |
| 20260504210157 | 80 | 353 | 3.5 | 4.3 | 0.00 | 0.00 | 0.00 | 94 | 1011.0 |
| 20260504205657 | 80 | 166 | 0.0 | 0.0 | 0.00 | 0.00 | 0.00 | 94 | 1011.0 |
| 20260504205157 | 80 | 141 | 2.6 | 2.6 | 0.00 | 0.00 | 0.00 | 94 | 1011.0 |
| 20260504204657 | 80 | 143 | 1.7 | 1.7 | 0.00 | 0.00 | 0.00 | 94 | 1011.0 |
| 20260504204158 | 80 | 169 | 2.6 | 4.3 | 0.00 | 0.00 | 0.00 | 94 | 1011.0 |
| 20260504203657 | 80 | 120 | 3.5 | 4.3 | 0.00 | 0.00 | 0.00 | 94 | 1011.0 |
| 20260504203158 | 80 | 153 | 2.6 | 4.3 | 0.00 | 0.00 | 0.00 | 94 | 1011.0 |
| 20260504202657 | 80 | 133 | 4.3 | 4.3 | 0.00 | 0.00 | 0.00 | 94 | 1011.0 |
| 20260504202157 | 80 | 152 | 1.7 | 1.7 | 0.00 | 0.00 | 0.00 | 94 | 1011.0 |
| 20260504201658 | 80 | 132 | 0.9 | 0.9 | 0.00 | 0.00 | 0.00 | 94 | 1011.0 |
| 20260504201157 | 80 | 158 | 1.7 | 1.7 | 0.00 | 0.00 | 0.00 | 95 | 1011.0 |
| 20260504200658 | 80 | 111 | 1.7 | 1.7 | 0.00 | 0.00 | 0.00 | 95 | 1011.0 |
| 20260504200157 | 80 | 148 | 1.7 | 1.7 | 0.00 | 0.00 | 0.00 | 95 | 1011.0 |
| 20260504195657 | 80 | 150 | 2.6 | 2.6 | 0.00 | 0.00 | 0.00 | 95 | 1011.0 |
| 20260504195157 | 80 | 137 | 0.9 | 0.9 | 0.00 | 0.00 | 0.00 | 95 | 1011.0 |
| 20260504194658 | 80 | 155 | 0.9 | 1.7 | 0.00 | 0.00 | 0.00 | 95 | 1011.0 |
| 20260504194157 | 80 | 160 | 0.0 | 0.9 | 0.00 | 0.00 | 0.00 | 95 | 1011.0 |
| 20260504193657 | 80 | 129 | 4.3 | 5.2 | 0.00 | 0.00 | 0.00 | 95 | 1011.0 |
| 20260504193157 | 80 | 123 | 4.3 | 5.2 | 0.00 | 0.00 | 0.00 | 95 | 1011.0 |